Location: Unspecified
(40.9447°N, 78.9903°W)
Time: 22:53:00
(UTC-04:00)

Resurs 1-4 Rocket - Visible Passes

Search period start: 26 July 2021 00:00
Search period end: 05 August 2021 00:00
Orbit: 800 x 813 km, 98.6° (Epoch: 26 July)

Date Brightness Start Highest point End Pass type
(mag) Time Alt. Az. Time Alt. Az. Time Alt. Az.
26 Jul 2.3 02:32:58 10° NNE 02:38:13 58° E 02:38:26 57° ESE visible
26 Jul 3.8 04:13:55 10° NNW 04:17:33 19° WNW 04:19:30 16° W visible
27 Jul 3.2 02:08:40 10° NNE 02:13:26 34° E 02:13:26 34° E visible
27 Jul 3.2 03:48:37 10° N 03:53:11 30° WNW 03:54:31 27° W visible
28 Jul 3.9 01:44:46 10° NE 01:48:26 20° E 01:48:26 20° E visible
28 Jul 2.4 03:23:37 10° N 03:28:43 49° WNW 03:29:31 45° W visible
29 Jul 4.5 01:21:56 10° ENE 01:23:26 12° E 01:23:26 12° E visible
29 Jul 1.9 02:58:51 10° NNE 03:04:10 82° WNW 03:04:30 77° SW visible
29 Jul 4.2 04:41:33 10° NW 04:43:07 11° WNW 04:44:41 10° WNW visible
30 Jul 2.3 02:34:18 10° NNE 02:39:30 60° E 02:39:30 60° E visible
30 Jul 3.8 04:15:17 10° NNW 04:18:50 19° WNW 04:20:35 16° W visible
31 Jul 3.2 02:09:58 10° NNE 02:14:30 35° E 02:14:30 35° E visible
31 Jul 3.2 03:49:57 10° N 03:54:29 29° WNW 03:55:35 27° W visible
01 Aug 3.9 01:46:02 10° NE 01:49:30 21° E 01:49:30 21° E visible
01 Aug 2.5 03:24:57 10° N 03:30:02 48° WNW 03:30:34 46° W visible
02 Aug 4.5 01:23:05 10° ENE 01:24:30 12° E 01:24:30 12° E visible
02 Aug 2.0 03:00:10 10° N 03:05:29 80° WNW 03:05:34 80° W visible
02 Aug 4.3 04:43:03 10° NW 04:44:24 11° WNW 04:45:45 10° WNW visible
03 Aug 2.4 02:35:36 10° NNE 02:40:34 60° E 02:40:34 60° E visible
03 Aug 3.8 04:16:40 10° NNW 04:20:09 18° WNW 04:21:38 16° W visible
04 Aug 3.2 02:11:16 10° NNE 02:15:33 35° E 02:15:33 35° E visible
04 Aug 3.2 03:51:18 10° N 03:55:47 29° WNW 03:56:38 27° W visible
